Overview Statistics Trail Chart Weather Telemetry Raw packets
 

This is the latest recevied weather packets stored in our database for station/object R2AKT-13. If no packets are shown the sender has not sent any weather packets the latest 10 day(s).

<< 30 31 32 33 34 35 36 >>
Time Temp. Humidity Pressure Rain* Wind** Luminosity Snow
1788298871 17.78° C 79% 987.1 hPa - 4.02 m/s, 175° - -
1788298341 17.78° C 79% 987.2 hPa - 3.58 m/s, 175° - -
1788297821 17.78° C 78% 987.3 hPa - 3.58 m/s, 169° - -
1788297306 17.78° C 77% 987.4 hPa - 3.13 m/s, 174° - -
1788296801 17.78° C 76% 987.4 hPa - 2.68 m/s, 172° - -
1788296266 17.78° C 76% 987.4 hPa - 4.02 m/s, 170° - -
1788295756 17.78° C 76% 987.5 hPa - 2.68 m/s, 166° - -
1788295271 17.78° C 76% 987.5 hPa - 3.13 m/s, 164° - -
1788294711 18.33° C 75% 987.6 hPa - 3.13 m/s, 171° - -
1788294131 18.33° C 75% 987.8 hPa - 3.58 m/s, 166° - -
1788293582 18.33° C 75% 987.8 hPa - 1.79 m/s, 159° - -
1788293056 18.33° C 74% 987.9 hPa - 2.68 m/s, 171° - -
1788292582 18.33° C 74% 987.8 hPa - 2.24 m/s, 163° - -
1788292001 18.33° C 74% 987.9 hPa - 2.24 m/s, 175° - -
1788291466 18.33° C 73% 987.9 hPa - 2.68 m/s, 172° - -
1788290906 18.33° C 72% 988 hPa - 1.79 m/s, 163° - -
1788290371 18.33° C 71% 988.1 hPa - 3.13 m/s, 182° - -
1788289886 18.33° C 72% 988 hPa - 2.24 m/s, 182° - -
1788289361 18.89° C 72% 988.3 hPa - 1.34 m/s, 197° - -
1788288771 18.33° C 72% 988.5 hPa - 2.24 m/s, 186° - -
1788288251 18.89° C 74% 988.6 hPa - 0.89 m/s, 180° - -
1788287726 19.44° C 68% 988.8 hPa - 0.45 m/s, 207° - -
1788287151 19.44° C 67% 988.9 hPa - 1.34 m/s, 205° - -
1788286556 19.44° C 68% 989.1 hPa - 3.58 m/s, 181° - -
1788285991 20° C 66% 988.9 hPa - 3.13 m/s, 171° - -

* Rain since midnight (hover to see other rain measurements)
** Current wind speed in m/s (hover to see current wind gust speed)